EW5069 Weather Reports


time (UTC)temp
C
wind
direction
speed
KPH
gust
KPH
rain 1hr
cm
rain 24hr
cm
rain mn
cm
humidity
%
barometer
mb
20260904230051 31 0.0 8.0 0.00 0.00 0.00 74 1011.6
20260904224535 31 0.0 12.9 0.00 0.00 0.00 72 1011.6
20260904223040 31 0.0 16.1 0.00 0.00 0.00 70 1011.6
20260904221532 31 0.0 14.5 0.00 0.00 0.00 72 1011.5
20260904220037 31 0.0 14.5 0.00 0.00 0.00 74 1011.5
20260904214533 30 0.0 16.1 0.00 0.00 0.00 74 1011.6
20260904213030 30 0.0 12.9 0.00 0.00 0.00 75 1011.5
20260904211527 30 0.0 9.7 0.00 0.00 0.00 75 1011.6
20260904210029 30 0.0 6.4 0.00 0.00 0.00 76 1011.9
20260904204527 30 0.0 9.7 0.00 0.00 0.00 77 1011.8
20260904203024 30 0.0 16.1 0.00 0.00 0.00 76 1011.8
20260904201523 29 0.0 16.1 0.00 0.00 0.00 77 1011.9
20260904200039 28 0.0 22.5 0.00 0.00 0.00 81 1012.4
20260904194518 29 0.0 20.9 0.00 0.00 0.00 78 1012.8
20260904193020 30 0.0 19.3 0.00 0.00 0.00 74 1012.8
20260904191519 31 0.0 25.7 0.00 0.00 0.00 74 1013.0
20260904190015 30 360 0.0 25.7 0.00 0.00 0.00 75 1013.5
20260904184515 31 0.0 33.8 0.00 0.00 0.00 70 1014.1
20260904183014 32 0.0 17.7 0.00 0.00 0.00 60 1014.1
20260904181519 31 0.0 16.1 0.00 0.00 0.00 61 1014.1
20260904180012 31 0.0 19.3 0.00 0.00 0.00 63 1014.2
20260904174511 31 0.0 9.7 0.00 0.00 0.00 69 1014.0
20260904173012 31 0.0 9.7 0.00 0.00 0.00 64 1013.8
20260904171512 30 0.0 6.4 0.00 0.00 0.00 64 1013.7
20260904170013 29 0.0 12.9 0.00 0.00 0.00 71 1013.9
20260904164507 29 0.0 17.7 0.00 0.00 0.00 75 1014.1
20260904163007 30 0.0 16.1 0.00 0.00 0.00 71 1014.3
20260904161506 31 0.0 25.7 0.00 0.00 0.00 67 1014.4
20260904160004 32 0.0 17.7 0.00 0.00 0.00 66 1014.2
20260904154600 31 0.0 16.1 0.00 0.00 0.00 68 1014.1
20260904153126 31 0.0 14.5 0.00 0.00 0.00 69 1014.0
20260904151555 31 0.0 17.7 0.00 0.00 0.00 70 1014.1
20260904150051 30 0.0 16.1 0.00 0.00 0.00 71 1014.1
20260904144547 30 0.0 20.9 0.00 0.00 0.00 71 1014.2
20260904143045 29 0.0 16.1 0.00 0.00 0.00 72 1014.1
20260904141540 29 0.0 14.5 0.00 0.00 0.00 75 1014.1
20260904140039 28 0.0 16.1 0.00 0.00 0.00 77 1014.2
20260904134532 27 0.0 12.9 0.00 0.00 0.00 78 1014.0
20260904133030 27 0.0 9.7 0.00 0.00 0.00 79 1014.1
20260904131525 26 0.0 9.7 0.00 0.00 0.00 82 1013.9
20260904130021 26 0.0 8.0 0.00 0.00 0.00 84 1013.7
20260904124524 25 0.0 8.0 0.00 0.00 0.00 86 1013.7
20260904123013 24 0.0 8.0 0.00 0.00 0.00 86 1013.7
20260904121508 24 0.0 6.4 0.00 0.00 0.00 86 1013.7
20260904120009 23 0.0 1.6 0.00 0.00 0.00 87 1013.6
20260904114501 23 0.0 6.4 0.00 0.00 0.00 87 1013.5
20260904113100 23 0.0 3.2 0.00 0.00 0.00 88 1013.2
20260904111558 23 0.0 3.2 0.00 0.00 0.00 87 1012.8
20260904110058 23 0.0 6.4 0.00 0.00 0.00 86 1012.5
20260904104557 23 0.0 9.7 0.00 0.00 0.00 86 1012.3
20260904103102 23 0.0 8.0 0.00 0.00 0.00 85 1012.5
20260904101556 24 0.0 4.8 0.00 0.00 0.00 85 1012.6
20260904100056 23 0.0 4.8 0.00 0.00 0.00 86 1012.6
20260904094554 23 0.0 3.2 0.00 0.00 0.00 85 1012.7
20260904093103 24 0.0 4.8 0.00 0.00 0.00 85 1012.7
20260904091553 24 0.0 6.4 0.00 0.00 0.00 86 1012.5
20260904090054 23 0.0 6.4 0.00 0.00 0.00 86 1012.4
20260904084552 24 0.0 8.0 0.00 0.00 0.00 86 1012.3
20260904083052 24 0.0 12.9 0.00 0.00 0.00 86 1012.3
20260904081549 24 0.0 12.9 0.00 0.00 0.00 88 1012.3
20260904080046 23 0.0 9.7 0.00 0.00 0.00 88 1012.4
20260904074545 23 0.0 12.9 0.00 0.00 0.00 88 1012.5
20260904073053 23 0.0 8.0 0.00 0.00 0.00 88 1012.7
20260904071541 23 0.0 9.7 0.00 0.00 0.00 88 1012.9
20260904070138 23 0.0 6.4 0.00 0.00 0.00 88 1013.2
20260904064538 23 0.0 8.0 0.00 0.00 0.00 88 1013.3
20260904063040 23 0.0 8.0 0.00 0.00 0.00 88 1013.4
20260904061536 23 0.0 8.0 0.00 0.00 0.00 88 1013.5
20260904060035 22 0.0 6.4 0.00 0.00 0.00 88 1013.5
20260904054536 23 0.0 8.0 0.00 0.00 0.00 88 1013.6
20260904053037 23 0.0 6.4 0.00 0.00 0.00 88 1013.6
20260904051533 22 0.0 6.4 0.00 0.00 0.00 88 1013.8
20260904050032 23 0.0 8.0 0.00 0.00 0.00 88 1013.8
20260904044530 23 0.0 8.0 0.00 0.00 0.00 88 1013.7
20260904043028 23 0.0 9.7 0.00 0.00 0.00 87 1013.6
20260904041527 23 0.0 6.4 0.00 0.00 0.00 87 1013.5
20260904040025 23 0.0 6.4 0.00 0.00 0.00 87 1013.3
20260904034527 23 0.0 9.7 0.00 0.00 0.00 86 1013.4
20260904033035 23 0.0 9.7 0.00 0.00 0.00 87 1013.4
20260904031524 23 0.0 6.4 0.00 0.00 0.00 87 1013.6
20260904030023 23 0.0 9.7 0.00 0.00 0.00 88 1013.6
20260904024523 23 0.0 8.0 0.00 0.00 0.00 87 1013.6
20260904023022 24 0.0 8.0 0.00 0.00 0.00 86 1013.5
20260904021524 24 0.0 6.4 0.00 0.00 0.00 86 1013.4
20260904020022 24 0.0 8.0 0.00 0.00 0.00 86 1013.4
20260904014521 24 0.0 6.4 0.00 0.00 0.00 86 1013.4
20260904013021 25 0.0 12.9 0.00 0.00 0.00 85 1013.2
20260904011520 25 0.0 9.7 0.00 0.00 0.00 85 1013.1
20260904010020 26 0.0 6.4 0.00 0.00 0.00 83 1013.1
20260904004520 26 0.0 6.4 0.00 0.00 0.00 82 1013.0
20260904003024 26 0.0 16.1 0.00 0.00 0.00 82 1012.9
20260904001701 26 0.0 6.4 0.00 0.00 0.00 84 1013.0
20260904000015 26 0.0 8.0 0.00 0.00 0.00 84 1013.1
20260903234515 27 0.0 6.4 0.00 0.00 0.00 83 1013.0
20260903233014 28 0.0 16.1 0.00 0.00 0.00 77 1012.9
20260903231513 29 0.0 22.5 0.00 0.00 0.00 73 1012.7